JE4YIZ-13 Weather Reports


time (UTC)temp
C
wind
direction
speed
KPH
gust
KPH
rain 1hr
cm
rain 24hr
cm
rain mn
cm
humidity
%
barometer
mb
20260508071614 21 169 8.0 16.1 0.00 0.00 0.00 45 1009.9
20260508071112 21 225 6.4 14.5 0.00 0.00 0.00 44 1009.8
20260508070622 21 158 6.4 16.1 0.00 0.00 0.00 45 1009.7
20260508070127 20 171 6.4 16.1 0.00 0.00 0.00 47 1009.7
20260508065637 20 162 3.2 22.5 0.00 0.00 0.00 49 1009.7
20260508065120 20 108 11.3 29.0 0.00 0.00 0.00 49 1009.7
20260508064630 20 131 11.3 33.8 0.00 0.00 0.00 48 1009.7
20260508063632 20 79 9.7 24.1 0.00 0.00 0.00 47 1009.5
20260508063114 20 111 11.3 29.0 0.00 0.00 0.00 47 1009.7
20260508062623 20 79 12.9 29.0 0.00 0.00 0.00 46 1009.6
20260508062133 21 124 11.3 27.4 0.00 0.00 0.00 46 1009.7
20260508061116 21 157 14.5 30.6 0.00 0.00 0.00 47 1009.6
20260508060647 21 176 8.0 22.5 0.00 0.00 0.00 47 1009.5
20260508060134 21 129 8.0 22.5 0.00 0.00 0.00 46 1009.3
20260508055614 21 168 9.7 27.4 0.00 0.00 0.00 46 1009.4
20260508055124 21 150 12.9 27.4 0.00 0.00 0.00 49 1009.5
20260508054635 21 122 6.4 22.5 0.00 0.00 0.00 48 1009.5
20260508054115 21 94 9.7 22.5 0.00 0.00 0.00 48 1009.6
20260508053620 21 128 9.7 24.1 0.00 0.00 0.00 47 1009.4
20260508053129 21 119 11.3 29.0 0.00 0.00 0.00 48 1009.5
20260508052658 21 142 9.7 29.0 0.00 0.00 0.00 46 1009.5
20260508052120 22 140 8.0 22.5 0.00 0.00 0.00 43 1009.4
20260508051630 22 179 6.4 22.5 0.00 0.00 0.00 44 1009.4
20260508051112 21 134 9.7 19.3 0.00 0.00 0.00 45 1009.5
20260508050622 21 170 6.4 19.3 0.00 0.00 0.00 48 1009.5
20260508050130 21 131 8.0 19.3 0.00 0.00 0.00 49 1009.5
20260508045635 21 193 6.4 20.9 0.00 0.00 0.00 51 1009.5
20260508045118 22 122 6.4 20.9 0.00 0.00 0.00 50 1009.5
20260508044721 22 195 11.3 27.4 0.00 0.00 0.00 49 1009.5
20260508044138 21 115 8.0 27.4 0.00 0.00 0.00 51 1009.6
20260508043626 22 243 9.7 27.4 0.00 0.00 0.00 51 1009.6
20260508043135 22 147 11.3 27.4 0.00 0.00 0.00 49 1009.6
20260508042617 22 160 6.4 19.3 0.00 0.00 0.00 52 1009.6
20260508042121 21 147 6.4 24.1 0.00 0.00 0.00 54 1009.4
20260508041630 22 165 12.9 24.1 0.00 0.00 0.00 52 1009.5
20260508041113 22 164 8.0 20.9 0.00 0.00 0.00 53 1009.5
20260508040622 21 167 9.7 20.9 0.00 0.00 0.00 54 1009.6
20260508040131 21 158 9.7 25.7 0.00 0.00 0.00 53 1009.4
20260508035614 22 149 12.9 25.7 0.00 0.00 0.00 52 1009.4
20260508035123 22 153 11.3 17.7 0.00 0.00 0.00 53 1009.2
20260508034628 22 127 6.4 19.3 0.00 0.00 0.00 54 1009.2
20260508033651 22 122 9.7 20.9 0.00 0.00 0.00 56 1009.2
20260508033133 21 178 9.7 20.9 0.00 0.00 0.00 56 1009.0
20260508032620 21 203 6.4 16.1 0.00 0.00 0.00 59 1009.0
20260508032129 21 136 6.4 22.5 0.00 0.00 0.00 58 1009.1
20260508031633 21 140 8.0 24.1 0.00 0.00 0.00 57 1009.0
20260508031111 21 157 9.7 25.7 0.00 0.00 0.00 59 1009.0
20260508030621 21 130 6.4 27.4 0.00 0.00 0.00 59 1008.9
20260508030147 21 120 9.7 27.4 0.00 0.00 0.00 59 1009.1
20260508025635 21 192 9.7 27.4 0.00 0.00 0.00 60 1009.0
20260508025118 21 214 6.4 27.4 0.00 0.00 0.00 59 1009.0
20260508024628 21 161 12.9 27.4 0.00 0.00 0.00 59 1009.1
20260508024158 21 217 8.0 25.7 0.00 0.00 0.00 62 1008.9
20260508023617 21 139 8.0 29.0 0.00 0.00 0.00 64 1009.0
20260508023127 20 70 11.3 32.2 0.00 0.00 0.00 65 1009.1
20260508022632 20 196 11.3 32.2 0.00 0.00 0.00 66 1009.1
20260508022114 21 115 11.3 30.6 0.00 0.00 0.00 66 1009.1
20260508021624 20 160 11.3 33.8 0.00 0.00 0.00 69 1009.2
20260508021134 20 78 9.7 29.0 0.00 0.00 0.00 68 1009.2
20260508020619 20 157 11.3 20.9 0.00 0.00 0.00 67 1009.2
20260508020128 20 172 8.0 27.4 0.00 0.00 0.00 68 1009.3
20260508015611 20 116 12.9 27.4 0.00 0.00 0.00 68 1009.1
20260508015121 20 150 6.4 37.0 0.00 0.00 0.00 68 1009.3
20260508014632 20 177 12.9 27.4 0.00 0.00 0.00 67 1009.1
20260508014115 20 269 9.7 35.4 0.00 0.00 0.00 67 1009.0
20260508013645 20 109 14.5 35.4 0.00 0.00 0.00 67 1009.0
20260508013132 20 133 12.9 33.8 0.00 0.00 0.00 66 1009.0
20260508012636 20 126 14.5 29.0 0.00 0.00 0.00 67 1009.0
20260508012145 20 127 9.7 24.1 0.00 0.00 0.00 69 1009.0
20260508011654 19 237 8.0 22.5 0.00 0.00 0.00 71 1009.0
20260508011115 18 113 11.3 24.1 0.00 0.00 0.00 73 1008.9
20260508010621 18 163 9.7 24.1 0.00 0.00 0.00 75 1009.0
20260508010131 18 82 8.0 20.9 0.00 0.00 0.00 75 1009.1
20260508005613 18 136 6.4 20.9 0.00 0.00 0.00 75 1009.1
20260508005121 18 143 8.0 25.7 0.00 0.00 0.00 75 1009.1
20260508004630 18 172 6.4 25.7 0.00 0.00 0.00 74 1009.2
20260508004134 18 149 6.4 30.6 0.00 0.00 0.00 74 1008.9
20260508003712 18 122 9.7 30.6 0.00 0.00 0.00 74 1008.9
20260508003131 18 150 11.3 20.9 0.00 0.00 0.00 73 1008.8
20260508002634 18 108 8.0 16.1 0.00 0.00 0.00 73 1008.8
20260508002122 18 139 8.0 19.3 0.00 0.00 0.00 73 1008.8
20260508001632 18 141 6.4 20.9 0.00 0.00 0.00 73 1008.9
20260508001115 18 124 8.0 20.9 0.00 0.00 0.00 72 1008.9
20260508000626 18 173 6.4 16.1 0.00 0.00 0.00 72 1008.9
20260508000135 18 118 1.6 14.5 0.00 0.00 0.00 71 1008.9
20260507235617 18 134 1.6 17.7 0.00 0.00 0.00 70 1008.8
20260507235122 18 148 8.0 17.7 0.00 0.00 0.00 69 1008.8
20260507234633 18 228 6.4 24.1 0.00 0.00 0.00 69 1008.7
20260507234115 18 125 9.7 24.1 0.00 0.00 0.00 68 1008.8
20260507233624 18 113 8.0 19.3 0.00 0.00 0.00 67 1008.8
20260507233133 18 205 9.7 16.1 0.00 0.00 0.00 67 1008.7
20260507232615 18 129 4.8 25.7 0.00 0.00 0.00 66 1008.8
20260507232145 18 127 4.8 19.3 0.00 0.00 0.00 65 1008.7
20260507231612 18 138 6.4 20.9 0.00 0.00 0.00 66 1008.7
20260507231117 18 174 4.8 19.3 0.00 0.00 0.00 68 1008.7
20260507230628 19 125 3.2 22.5 0.00 0.00 0.00 71 1008.7
20260507230137 19 136 9.7 22.5 0.00 0.00 0.00 72 1008.6
20260507225641 19 120 3.2 14.5 0.00 0.00 0.00 74 1008.6
20260507225130 18 118 8.0 14.5 0.00 0.00 0.00 75 1008.5
20260507224613 18 117 4.8 14.5 0.00 0.00 0.00 77 1008.5
20260507224112 18 178 8.0 12.9 0.00 0.00 0.00 77 1008.5
20260507223639 18 108 8.0 12.9 0.00 0.00 0.00 78 1008.2
20260507223147 18 158 4.8 9.7 0.00 0.00 0.00 78 1008.2
20260507222636 18 117 3.2 11.3 0.00 0.00 0.00 78 1008.2
20260507222118 18 137 4.8 14.5 0.00 0.00 0.00 78 1008.1
20260507221627 18 141 3.2 12.9 0.00 0.00 0.00 78 1008.2
20260507221136 18 147 4.8 12.9 0.00 0.00 0.00 79 1008.0
20260507220617 18 131 1.6 11.3 0.00 0.00 0.00 79 1008.0
20260507220126 18 153 3.2 12.9 0.00 0.00 0.00 79 1008.1
20260507215632 18 133 4.8 12.9 0.00 0.00 0.00 79 1008.2
20260507215115 18 125 3.2 17.7 0.00 0.00 0.00 79 1008.3
20260507214625 18 204 1.6 19.3 0.00 0.00 0.00 79 1008.4
20260507214126 18 143 6.4 19.3 0.00 0.00 0.00 79 1008.5
20260507213636 18 158 4.8 17.7 0.00 0.00 0.00 79 1008.5
20260507213117 18 187 4.8 16.1 0.00 0.00 0.00 78 1008.4
20260507212626 18 95 6.4 19.3 0.00 0.00 0.00 78 1008.4
20260507212135 18 124 8.0 19.3 0.00 0.00 0.00 78 1008.4
20260507211620 18 138 4.8 12.9 0.00 0.00 0.00 78 1008.2
20260507211130 18 142 3.2 11.3 0.00 0.00 0.00 78 1008.1
20260507210634 18 207 4.8 11.3 0.00 0.00 0.00 78 1008.2
20260507210123 18 155 1.6 9.7 0.00 0.00 0.00 78 1008.2
20260507205654 18 181 3.2 12.9 0.00 0.00 0.00 78 1008.1
20260507205115 18 138 3.2 12.9 0.00 0.00 0.00 78 1008.2
20260507204615 18 176 4.8 12.9 0.00 0.00 0.00 77 1008.1
20260507204121 18 137 4.8 19.3 0.00 0.00 0.00 77 1008.2
20260507203652 18 122 4.8 19.3 0.00 0.00 0.00 77 1008.1
20260507203113 18 136 3.2 16.1 0.00 0.00 0.00 78 1008.2
20260507202621 18 129 4.8 19.3 0.00 0.00 0.00 78 1008.0
20260507202132 18 198 4.8 17.7 0.00 0.00 0.00 79 1008.1
20260507201614 18 145 6.4 14.5 0.00 0.00 0.00 80 1008.0
20260507201113 18 230 3.2 14.5 0.00 0.00 0.00 81 1007.9
20260507200623 18 159 4.8 14.5 0.00 0.00 0.00 81 1007.8
20260507200128 18 153 4.8 14.5 0.00 0.00 0.00 82 1007.9
20260507195658 18 133 1.6 11.3 0.00 0.00 0.00 82 1007.8
20260507195140 18 123 3.2 9.7 0.00 0.00 0.00 83 1008.0
20260507194628 17 146 0.0 4.8 0.00 0.00 0.00 83 1008.0
20260507194137 17 199 1.6 4.8 0.00 0.00 0.00 84 1007.9
20260507193620 17 155 0.0 4.8 0.00 0.00 0.00 84 1008.0
20260507193128 17 173 1.6 3.2 0.00 0.00 0.00 85 1007.9
20260507192632 17 171 0.0 3.2 0.00 0.00 0.00 85 1007.9
20260507192114 17 166 1.6 3.2 0.00 0.00 0.00 86 1007.9
20260507191625 17 170 0.0 3.2 0.00 0.00 0.00 87 1007.9
20260507191136 17 171 0.0 3.2 0.00 0.00 0.00 87 1008.0
20260507190620 17 158 0.0 3.2 0.00 0.00 0.00 88 1008.0
20260507190128 17 165 0.0 3.2 0.00 0.00 0.00 88 1008.1
20260507185633 17 165 1.6 3.2 0.00 0.00 0.00 88 1008.0
20260507185121 16 148 1.6 3.2 0.00 0.00 0.00 88 1007.7
20260507184612 16 165 0.0 0.0 0.00 0.00 0.00 88 1007.5
20260507184111 16 165 0.0 0.0 0.00 0.00 0.00 88 1007.7
20260507183626 16 165 0.0 0.0 0.00 0.00 0.00 88 1007.6
20260507183157 16 165 0.0 0.0 0.00 0.00 0.00 88 1007.6
20260507182622 16 165 0.0 0.0 0.00 0.00 0.00 88 1007.7
20260507182135 16 165 0.0 0.0 0.00 0.00 0.00 88 1007.7
20260507181622 16 165 0.0 0.0 0.00 0.00 0.00 87 1007.7
20260507181134 16 165 0.0 0.0 0.00 0.00 0.00 87 1007.6
20260507180639 16 165 0.0 0.0 0.00 0.00 0.00 87 1007.6
20260507180126 16 165 0.0 0.0 0.00 0.00 0.00 87 1007.6
20260507175637 16 165 0.0 0.0 0.00 0.00 0.00 87 1007.6
20260507175120 17 165 0.0 0.0 0.00 0.00 0.00 87 1007.7
20260507174653 17 165 0.0 0.0 0.00 0.00 0.00 87 1007.8
20260507174117 17 167 0.0 0.0 0.00 0.00 0.00 87 1007.7
20260507173619 17 167 0.0 0.0 0.00 0.00 0.00 87 1008.1
20260507173132 17 167 0.0 0.0 0.00 0.00 0.00 87 1008.0
20260507172624 17 167 0.0 0.0 0.00 0.00 0.00 87 1008.0
20260507172120 17 167 0.0 0.0 0.00 0.00 0.00 87 1008.0
20260507171624 17 167 0.0 0.0 0.00 0.00 0.00 87 1008.0
20260507171135 17 167 0.0 0.0 0.00 0.00 0.00 87 1008.1
20260507170620 17 167 0.0 0.0 0.00 0.00 0.00 86 1008.2
20260507170150 17 167 0.0 0.0 0.00 0.00 0.00 86 1008.5
20260507165613 17 167 0.0 0.0 0.00 0.00 0.00 86 1008.4
20260507165115 17 167 0.0 0.0 0.00 0.00 0.00 86 1008.5
20260507164645 17 167 0.0 0.0 0.00 0.00 0.00 86 1008.6
20260507164157 17 167 0.0 0.0 0.00 0.00 0.00 86 1008.6
20260507163640 17 167 0.0 0.0 0.00 0.00 0.00 86 1008.5
20260507163131 17 167 0.0 0.0 0.00 0.00 0.00 86 1008.6
20260507162617 17 167 0.0 0.0 0.00 0.00 0.00 86 1008.7
20260507162129 17 167 0.0 0.0 0.00 0.00 0.00 86 1008.8
20260507161638 17 167 0.0 0.0 0.00 0.00 0.00 85 1008.9
20260507161120 17 167 0.0 0.0 0.00 0.00 0.00 85 1008.8
20260507160631 17 167 0.0 0.0 0.00 0.00 0.00 85 1008.7
20260507160115 17 167 0.0 0.0 0.00 0.00 0.00 85 1008.7
20260507155626 17 167 0.0 0.0 0.00 0.00 0.00 85 1008.8
20260507155137 17 167 0.0 0.0 0.00 0.00 0.00 85 1009.0
20260507154643 17 167 0.0 0.0 0.00 0.00 0.00 85 1008.9
20260507154134 17 166 0.0 0.0 0.00 0.00 0.00 85 1009.0
20260507153619 17 167 0.0 0.0 0.00 0.00 0.00 84 1009.1
20260507152620 17 167 0.0 0.0 0.00 0.00 0.00 84 1009.3
20260507152153 17 167 0.0 0.0 0.00 0.00 0.00 84 1009.4
20260507151635 17 167 0.0 0.0 0.00 0.00 0.00 84 1009.4
20260507151126 17 167 0.0 0.0 0.00 0.00 0.00 84 1009.4
20260507150613 17 167 0.0 0.0 0.00 0.00 0.00 83 1009.5
20260507150125 17 167 0.0 0.0 0.00 0.00 0.00 83 1009.5
20260507145611 17 167 0.0 0.0 0.00 0.00 0.00 83 1009.4
20260507145135 17 167 0.0 0.0 0.00 0.00 0.00 83 1009.5
20260507144644 17 167 0.0 0.0 0.00 0.00 0.00 83 1009.5
20260507144156 17 166 0.0 0.0 0.00 0.00 0.00 83 1009.4
20260507143622 17 167 0.0 0.0 0.00 0.00 0.00 83 1009.3
20260507143132 17 167 0.0 0.0 0.00 0.00 0.00 83 1009.3
20260507142616 17 167 0.0 0.0 0.00 0.00 0.00 83 1009.4
20260507142128 17 167 0.0 0.0 0.00 0.00 0.00 83 1009.7
20260507141611 17 167 0.0 0.0 0.00 0.00 0.00 83 1009.7
20260507141144 17 167 0.0 0.0 0.00 0.00 0.00 83 1009.6
20260507140614 17 167 0.0 0.0 0.00 0.00 0.00 82 1009.6
20260507140121 17 167 0.0 0.0 0.00 0.00 0.00 82 1009.6
20260507135656 17 167 0.0 0.0 0.00 0.00 0.00 82 1009.6
20260507135143 17 167 0.0 0.0 0.00 0.00 0.00 82 1009.6
20260507134633 17 167 0.0 0.0 0.00 0.00 0.00 82 1009.5
20260507134117 17 167 0.0 0.0 0.00 0.00 0.00 82 1009.5
20260507133630 17 167 0.0 0.0 0.00 0.00 0.00 82 1009.6
20260507133113 17 166 0.0 0.0 0.00 0.00 0.00 82 1009.5
20260507132616 17 167 0.0 0.0 0.00 0.00 0.00 82 1009.3
20260507132147 17 179 0.0 0.0 0.00 0.00 0.00 82 1009.2
20260507131612 17 179 0.0 0.0 0.00 0.00 0.00 82 1009.3
20260507131123 17 179 0.0 0.0 0.00 0.00 0.00 82 1009.3
20260507130636 17 179 0.0 0.0 0.00 0.00 0.00 82 1009.3
20260507130120 17 179 0.0 0.0 0.00 0.00 0.00 81 1009.5
20260507125634 17 179 0.0 0.0 0.00 0.00 0.00 81 1009.6
20260507125143 17 179 0.0 0.0 0.00 0.00 0.00 81 1009.6
20260507124635 17 179 0.0 0.0 0.00 0.00 0.00 81 1009.7
20260507124119 17 179 0.0 0.0 0.00 0.00 0.00 81 1009.7
20260507123654 17 179 0.0 0.0 0.00 0.00 0.00 81 1009.7
20260507123137 17 179 0.0 0.0 0.00 0.00 0.00 82 1009.7
20260507122627 17 179 0.0 0.0 0.00 0.00 0.00 81 1009.8
20260507122111 17 179 0.0 0.0 0.00 0.00 0.00 81 1009.6
20260507121625 17 179 0.0 0.0 0.00 0.00 0.00 80 1009.7
20260507121137 18 179 0.0 0.0 0.00 0.00 0.00 80 1009.5
20260507120620 18 179 0.0 0.0 0.00 0.00 0.00 80 1009.4
20260507115615 18 181 0.0 0.0 0.00 0.00 0.00 80 1009.5
20260507115125 18 181 0.0 3.2 0.00 0.00 0.00 80 1009.4
20260507114656 18 181 0.0 3.2 0.00 0.00 0.00 80 1009.5
20260507114118 18 182 1.6 3.2 0.00 0.00 0.00 80 1009.4
20260507113611 18 181 0.0 0.0 0.00 0.00 0.00 79 1009.4
20260507113124 18 181 0.0 0.0 0.00 0.00 0.00 79 1009.4
20260507112635 18 181 0.0 0.0 0.00 0.00 0.00 79 1009.2
20260507112120 18 182 0.0 0.0 0.00 0.00 0.00 79 1009.2
20260507111612 18 182 0.0 0.0 0.00 0.00 0.00 78 1009.2
20260507111120 18 184 0.0 0.0 0.00 0.00 0.00 78 1009.2
20260507110634 18 184 0.0 0.0 0.00 0.00 0.00 78 1009.2
20260507110119 19 184 0.0 0.0 0.00 0.00 0.00 78 1009.2
20260507105630 19 184 0.0 0.0 0.00 0.00 0.00 78 1009.1
20260507105113 19 184 0.0 0.0 0.00 0.00 0.00 78 1009.1
20260507104624 19 185 0.0 0.0 0.00 0.00 0.00 78 1009.1
20260507104136 19 185 0.0 1.6 0.00 0.00 0.00 78 1009.2
20260507103621 19 184 0.0 1.6 0.00 0.00 0.00 78 1009.2
20260507103127 19 185 0.0 3.2 0.00 0.00 0.00 78 1009.2
20260507102651 19 185 1.6 3.2 0.00 0.00 0.00 77 1009.1
20260507102132 19 185 0.0 4.8 0.00 0.00 0.00 77 1009.0
20260507101620 19 184 1.6 4.8 0.00 0.00 0.00 76 1008.9
20260507101130 20 174 1.6 3.2 0.00 0.00 0.00 76 1008.9
20260507100610 20 174 1.6 3.2 0.00 0.00 0.00 75 1008.9
20260507100119 20 174 1.6 4.8 0.00 0.00 0.00 75 1008.9
20260507095625 20 186 1.6 4.8 0.00 0.00 0.00 74 1008.8
20260507095134 20 181 1.6 3.2 0.00 0.00 0.00 73 1008.8
20260507094616 20 167 0.0 1.6 0.00 0.00 0.00 72 1008.8
20260507094126 21 167 1.6 1.6 0.00 0.00 0.00 71 1008.9
20260507093635 21 167 1.6 3.2 0.00 0.00 0.00 70 1008.8
20260507093117 21 91 1.6 4.8 0.00 0.00 0.00 70 1008.7
20260507092627 21 46 3.2 4.8 0.00 0.00 0.00 69 1008.7
20260507092137 21 86 1.6 4.8 0.00 0.00 0.00 68 1008.7
20260507091615 21 77 3.2 4.8 0.00 0.00 0.00 68 1008.8
20260507091125 22 72 3.2 4.8 0.00 0.00 0.00 67 1008.7
20260507090635 22 90 1.6 4.8 0.00 0.00 0.00 66 1008.7
20260507090117 22 83 3.2 6.4 0.00 0.00 0.00 65 1008.8
20260507085626 22 68 3.2 6.4 0.00 0.00 0.00 64 1008.9
20260507085135 22 71 3.2 6.4 0.00 0.00 0.00 65 1008.7
20260507084616 22 84 1.6 6.4 0.00 0.00 0.00 65 1008.8
20260507084125 22 93 3.2 6.4 0.00 0.00 0.00 64 1008.8
20260507083610 22 92 3.2 4.8 0.00 0.00 0.00 64 1008.8
20260507083139 22 93 1.6 4.8 0.00 0.00 0.00 65 1008.8
20260507082627 22 100 1.6 6.4 0.00 0.00 0.00 66 1008.9
20260507082137 22 101 3.2 6.4 0.00 0.00 0.00 66 1008.8
20260507081619 22 86 3.2 6.4 0.00 0.00 0.00 66 1008.8
20260507081129 22 68 3.2 8.0 0.00 0.00 0.00 67 1008.9
20260507080637 22 106 4.8 8.0 0.00 0.00 0.00 67 1008.8
20260507080136 22 55 4.8 8.0 0.00 0.00 0.00 66 1008.9
20260507075621 22 68 3.2 8.0 0.00 0.00 0.00 66 1008.9
20260507075132 22 67 4.8 8.0 0.00 0.00 0.00 66 1008.9
20260507074614 22 86 4.8 8.0 0.00 0.00 0.00 65 1008.9
20260507074124 22 76 4.8 8.0 0.00 0.00 0.00 65 1009.1
20260507073634 22 71 3.2 8.0 0.00 0.00 0.00 66 1009.0
20260507073114 22 131 3.2 8.0 0.00 0.00 0.00 67 1009.1
20260507072613 22 42 4.8 8.0 0.00 0.00 0.00 67 1009.2
20260507072117 22 76 3.2 6.4 0.00 0.00 0.00 67 1009.2
20260507071626 21 67 3.2 6.4 0.00 0.00 0.00 68 1009.2